Погода в Карасуке

Погода в Карасуке : погода сейчас, прогноз погоды и архив. Всё, что Вы хотите узнать о погоде в Карасуке!

Хотите узнать прогноз погоды в Карасуке? Тогда Вам сюда: Погода в Карасуке

Поиск расширенной информации на нашем сайте:

Другие новости

Новости СМИ2

Главная страница сайта

Новости сайта

03.07.2017

Напоминаем, что на нашем специализированном сайте Метеоцентр.Азия вы можете получить высокодетализированные автоматические прогнозы погоды по пунктам России, СНГ и мира в авиационном формате (включающие направление и скорость ветра, видимость, явления погоды, количество и форму облачности, нижнюю и верхнюю границу облачности).

Рекомендуем: контейнер прямоугольный с крышкой по низкой цене

Погода в Карасуке - сегодня

Время (UTC), дата Ветер
(°,м/с) 
Видим.   Явления Облачность Т
(°С)
Тd
(°С)
f(%) Тe
(°С)
Pmin
(гПа)
dP
(гПа)
Po
(мм)
O2
(г/м3)
Тmin Tmax R s Состояние
почвы
00 20.09.17 290 (З) 20000 м    5/5 1000 м 
[Sc]
+6.6 +1.9 72 +6  1023.5  757  298  +6.6        сухая 
03 20.09.17 300 (СЗ) 20000 м    8/8 960 м 
[Sc]
+9.4 +2.3 61 +10  1023.4  757  295  +6.1         
06 20.09.17 240 (ЮЗ) 20000 м    10/8 1000 м кучево-дожд., средняя 
[Cb calv|As op]
+11.7 +2.8 54 +11  1022.8  -0.5  757  292           
09 20.09.17 200 (Ю) 20000 м  {дождь}  10/0 средняя 
[Ac und]
+10 +6.1 77 +10  1020.9  -1.9  755  293           
12 20.09.17 150 (ЮВ) 20000 м  {дождь}  10/10 1200 м 
[Sc]
+10.7 +6.3 74 +10  1018.2  -2.7  753  291    +12.1  0.9     
15 20.09.17 160 (Ю) 20000 м  в посл. час ливневой дождь  10/10 420 м кучево-дожд. 
[Cb calv]
+9.9 +6.9 82 +9  1015.4  -2.7  751  291           
18 20.09.17 160 (Ю) 4{10}  20000 м  {ливн. осадки}  9/9 1000 м кучево-дожд. 
[Cb calv]
+10.6 +8.2 85 +10  1011  -4.3  748  289           
21 20.09.17 240 (ЮЗ) 20000 м    10/10 960 м 
[Sc]
+10.9 +8.6 86 +11  1008.6  -2.4  746  288           
00 21.09.17 270 (З) 20000 м    10/10 960 м 
[Sc]
+11 +9 87 +11  1008.6  746  287  +9.5      влажная 
03 21.09.17 280 (З) 20000 м    3/0 верхняя 
[Ci fib]
+12.7 +10 84 +14  1009.3  0.8  747  286           
06 21.09.17 300 (СЗ) 5-10{11}  20000 м    4/4 300 м кучево-дожд. 
[Cb calv]
+15.9 +8.7 62 +16  1009.2  747  283           
09 21.09.17 300 (СЗ) 4{11}  20000 м    10/10 540 м кучево-дожд. 
[Cb calv]
+13.4 +7.3 67 +13  1010  0.7  747  286           
12 21.09.17 300 (СЗ) 5-10{11}  20000 м    10/10 570 м кучево-дожд. 
[Cb cap]
+11.8 +6.1 68 +11  1011.5  1.4  748  288    +16       
15 21.09.17 330 (СЗ) 3{10}  20000 м    10/10 450 м кучево-дожд. 
[Cb cap]
+8.9 +6.2 83 +8  1013  1.3  749  291           
18 21.09.17 320 (СЗ) 20000 м    10/10 1000 м кучево-дожд. 
[Cb cap]
+7.5 +4.8 83 +6  1013.5  0.5  750  293           
21 21.09.17 320 (СЗ) 20000 м    10/10 800 м кучево-дожд. 
[Cb calv]
+7 +4.8 86 +6  1014.6  750  294           
00 22.09.17 330 (СЗ) 20000 м    3/3 300 м кучево-дожд. 
[Cb cap]
+5.1 +3.6 90 +4  1015.6  0.9  751  297  +5.1        влажная 
03 22.09.17 320 (СЗ) 20000 м    10/10 300 м кучево-дожд. 
[Cb cap]
+5.1 +3.1 87 +4  1017  1.4  752  297  +5         
06 22.09.17 320 (СЗ) 20000 м    9/9 360 м кучево-дожд. 
[Cb calv]
+8.4 +3.1 69 +7  1016.9  0.1  752  294           
09 22.09.17 320 (СЗ) 20000 м  в посл. час ливневой дождь  10/10 330 м кучево-дожд. 
[Cb calv]
+9.2 +2 61 +9  1016.4  -0.5  752  293           
12 22.09.17 310 (СЗ) 10 км  слаб. ливневой дождь  10/10 300 м кучево-дожд. 
[Cb cap]
+6.9 +2.7 75 +6  1017.5  753  295    +9.6  0.0     
15 22.09.17 тихо ()   20000 м  {ливн. осадки}  10/10 500 м кучево-дожд. 
[Cb cap]
+5.1 +2.5 83 +5  1017.5  -0.1  752  297           
18 22.09.17 320 (СЗ) 20000 м  {ливн. осадки}  10/10 480 м кучево-дожд. 
[Cb cap]
+4.4 +1.9 84 +4  1017.1  -0.5  752  298           
21 22.09.17 340 (С) 20000 м    10/10 480 м кучево-дожд. 
[Cb calv]
+2.9 +1.1 88 +1  1017.2  0.1  752  300           
00 23.09.17 340 (С) 20000 м    10/10 540 м кучево-дожд. 
[Cb calv]
+1.6 -0.8 84 -1  1017.9  0.6  753  302  +1.6    0.6    влажная 
Время (UTC), дата Ветер
(°,м/с) 
Видим.   Явления Облачность Т
(°С)
Тd
(°С)
f(%) Тe
(°С)
Pmin
(гПа)
dP
(гПа)
Po
(мм)
O2
(г/м3)
Тmin Tmax R s Состояние
почвы

Для получения пояснительной информации подведите курсор к названию столбца.

ПОГОДА в Карасуке - архив

Всё, что Вы хотите узнать о погоде в Карасуке - удобно и подробно!

Выберите нужную дату (начиная с 1 января 2015* года) и нажмите кнопку "Найти".
Будут отображены архивные сводки погоды по пункту Карасук, начиная с указанной даты.


Отображать данные в формате CSV (для использования в таблицах Excel)


Внимание! Наш архив погоды предназначен исключительно для личного некоммерческого использования в познавательных целях. Если Вам необходимы официальные справки о состоянии погоды (для производственных, юридических, коммерческих и т.п. целей), обращайтесь в органы Росгидромета.

*Примечание: данная дата относится к архиву по метеостанциям СССР (Россия, СНГ, Балтия).
Архив по метеостанциям Зарубежной Европы и Азии (кроме Китая) хранится 10 дней, по другим регионам земного шара (Китай, Африка, Америка, Австралия, Океания) - 1 день.

Карасук - район местоположения метеостанции


Название, широта, долгота, высота метеостанции:
Карасук 53.7°ш. 78.1°д. 115 м над ур. моря [Российская Федерация]

Дополнительная информация

В oтличие oт бoльшинства пoгoдных сайтoв мы публикуем пoдрoбную метеoинфoрмацию в детальнoм прoфессиoнальнoм фoрмате.

Характеристики температуры и влажнoсти вoздуха измеряются на высoте 2 м в тени вдали oт зданий и деревьев.
Скoрoсть ветра измеряется на высoте 10 м (на урoвне рoста челoвека скoрoсть ветра ниже в 1.5-2 раза). Если метеoстанция нахoдится в гoрoде или в лесу, тo скoрoсть ветра занижена на 2-4 м/с пo сравнению с oткрытым местoм. Скoрoсть ветра над акватoриями крупных рек и oзёр, а также на вершинах хoлмoв на 2-5 м/с выше, чем в oбычных услoвиях.
Атмoсфернoе давление в разных тoчках местнoсти мoжет значительнo oтличаться oт давления на метеoстанции, в зависимoсти oт услoвий рельефа (при пoдъёме на 10 м давление пoнижается примернo на 1 мм рт.ст.).